Temp
14 14 14 14 14 14 14 13 13 13 13 13 13 13 13 13 13 13 13 12 12 13 13 13 13 13 13 13 13 13 13 13 13 13 13 13 13 13 13 13 13 13
13 13 14 14 13 13 13 13 13 13 13 13 13 13 13 13 13 13 12 12 12 12 12 13 13 14 13 13 13 13 13 13 13 13 13 13 13 13 13 13 13 13
13 13 14 14 13 13 13 13 13 13 13 13 13 13 13 13 13 12 12 12 12 12 12 13 13 13 13 13 13 13 13 13 13 13 13 13 13 13 13 13 13 13
13 14 14 13 13 13 13 13 13 13 13 13 13 13 13 12 12 12 12 12 12 12 12 12 13 13 13 13 13 13 13 13 13 13 13 13 13 13 13 13 13 13
13 13 13 13 13 13 13 13 13 13 13 13 13 13 12 12 12 12 12 12 12 12 12 12 12 12 13 13 13 13 13 13 13 13 13 13 13 12 12 12 13 13
13 13 13 13 13 13 13 13 13 13 13 13 13 12 12 12 12 12 12 12 12 12 12 12 12 12 13 13 13 13 13 13 13 13 13 12 12 12 12 12 13 13
13 13 13 13 13 12 13 13 13 13 13 13 12 12 12 12 12 12 12 12 12 12 12 12 12 12 13 13 13 13 13 13 13 12 12 12 12 12 12 12 12 12
13 13 13 13 13 12 13 13 13 13 13 13 12 12 12 12 12 12 12 12 12 12 12 12 12 12 12 12 12 13 12 12 12 12 12 12 12 12 12 12 12 12
13 13 13 13 13 12 13 13 13 13 13 12 13 13 12 12 12 12 12 12 12 12 11 11 12 12 12 12 12 12 12 12 12 12 12 12 12 12 12 12 12 12
13 13 13 12 12 12 13 13 13 13 13 13 13 13 12 12 12 12 12 12 12 12 11 12 12 12 12 12 12 12 12 12 12 12 12 12 12 12 12 12 12 12
13 13 12 12 12 12 13 13 13 13 13 13 13 13 12 12 12 12 12 12 12 12 12 12 12 12 12 12 12 12 12 12 12 12 12 12 12 12 12 12 12 12
13 13 12 12 12 12 13 12 13 13 13 13 13 12 12 12 12 12 12 12 12 12 12 12 12 12 12 12 12 12 12 12 12 12 12 12 12 12 12 12 12 12
12 12 12 12 12 12 12 12 12 13 12 12 13 12 12 12 12 12 12 12 12 12 12 12 12 12 12 12 12 12 12 12 12 12 12 12 12 12 12 12 12 12
12 12 12 12 12 12 12 12 12 12 12 12 12 12 12 12 12 12 12 12 12 12 12 12 12 12 12 12 12 12 12 12 12 12 12 12 12 12 12 12 12 12
12 12 12 11 12 12 12 12 12 12 12 12 12 12 12 12 12 12 12 12 12 12 12 12 12 12 12 12 12 12 12 12 12 12 12 12 12 12 12 12 12 12
12 12 12 11 11 12 12 12 12 12 12 12 12 12 12 12 12 12 12 13 13 12 12 12 12 12 12 12 12 12 12 12 12 12 12 12 12 12 12 12 12 12
12 12 12 11 11 12 12 12 12 11 11 12 12 12 12 12 12 12 12 12 12 12 12 12 12 12 12 12 12 12 12 12 12 12 12 12 12 12 12 12 12 12
12 12 11 11 11 11 12 12 11 11 11 12 12 12 12 12 12 12 12 12 12 12 12 12 12 12 12 12 12 12 12 12 12 12 12 12 12 12 12 12 12 12
11 11 11 11 11 11 11 11 11 11 11 11 12 12 12 12 12 12 12 12 12 12 12 12 12 12 12 12 12 12 12 12 12 12 12 12 12 12 12 12 12 12
11 11 11 11 11 11 11 11 11 11 11 11 11 12 12 12 12 12 12 11 11 11 11 11 11 11 11 12 12 12 12 12 12 12 12 12 12 12 12 12 12 12
11 11 11 11 11 11 11 11 11 11 11 11 11 11 11 11 11 11 11 11 11 11 11 11 11 11 11 11 11 11 12 12 12 12 12 12 12 12 12 12 12 11
11 11 10 10 10 10 11 11 11 11 11 11 11 11 11 11 11 11 11 11 11 11 11 11 11 11 11 11 11 11 11 12 12 12 11 12 12 12 12 12 11 11
10 10 10 10 10 10 10 11 11 11 11 11 11 11 11 11 11 11 11 11 11 11 11 11 11 11 11 11 11 11 11 11 11 11 11 11 11 11 11 11 11 11
9 10 10 10 10 10 10 10 11 10 10 10 10 10 11 11 11 11 11 11 11 11 11 11 11 11 11 11 11 11 11 11 11 11 11 11 11 10 10 11 11 11
8 9 9 9 9 10 10 10 10 10 10 10 10 10 10 10 10 10 10 10 10 10 10 10 10 10 10 11 11 11 11 11 11 11 11 10 10 10 10 10 10 10
8 8 8 8 9 9 9 9 10 9 9 9 9 9 9 9 9 9 10 10 10 9 9 9 9 9 9 10 10 10 10 10 10 10 10 10 10 10 10 10 9 9
Height
1517 1517 1519 1520 1522 1523 1525 1526 1526 1526 1527 1529 1530 1532 1533 1534 1536 1537 1539 1540 1541 1543 1544 1546 1548 1549 1550 1551 1553 1554 1556 1556 1557 1558 1559 1560 1560 1561 1561 1561 1562 1564
1516 1517 1518 1520 1521 1523 1525 1526 1527 1526 1527 1529 1530 1531 1533 1534 1536 1537 1538 1540 1541 1543 1544 1546 1547 1548 1549 1551 1552 1553 1554 1555 1556 1557 1558 1559 1559 1559 1560 1560 1561 1562
1514 1516 1518 1520 1521 1523 1525 1526 1527 1527 1527 1528 1530 1531 1533 1534 1535 1537 1538 1539 1541 1543 1544 1545 1546 1547 1548 1550 1551 1552 1553 1554 1555 1556 1557 1558 1558 1559 1559 1559 1560 1561
1514 1515 1517 1519 1521 1523 1525 1526 1527 1527 1528 1529 1530 1531 1532 1534 1535 1537 1538 1539 1540 1542 1543 1545 1546 1547 1548 1549 1550 1552 1552 1553 1554 1555 1556 1557 1558 1558 1559 1559 1559 1560
1513 1515 1516 1519 1521 1523 1524 1525 1526 1527 1528 1529 1530 1531 1532 1534 1535 1536 1537 1538 1539 1541 1542 1544 1546 1547 1548 1549 1550 1551 1552 1552 1553 1554 1555 1556 1557 1558 1558 1558 1558 1560
1513 1514 1516 1518 1520 1522 1524 1525 1526 1527 1528 1529 1530 1531 1532 1534 1535 1536 1536 1537 1538 1540 1542 1544 1546 1547 1548 1549 1550 1551 1552 1552 1553 1554 1555 1556 1557 1558 1558 1558 1559 1559
1510 1514 1517 1519 1520 1521 1523 1525 1526 1526 1527 1528 1529 1531 1532 1533 1534 1535 1536 1537 1538 1540 1542 1544 1545 1546 1548 1549 1549 1550 1551 1552 1552 1553 1554 1555 1556 1558 1558 1558 1559 1559
1507 1512 1516 1518 1519 1521 1522 1524 1525 1526 1527 1527 1528 1530 1531 1532 1533 1534 1536 1537 1539 1540 1542 1544 1546 1547 1548 1549 1549 1551 1551 1552 1553 1553 1554 1555 1556 1557 1558 1558 1559 1559
1506 1510 1515 1517 1518 1520 1521 1523 1525 1526 1526 1526 1527 1529 1530 1531 1533 1535 1536 1538 1539 1541 1543 1545 1546 1547 1548 1549 1550 1551 1552 1552 1553 1553 1554 1555 1555 1556 1557 1558 1558 1559
1507 1509 1512 1515 1516 1518 1520 1522 1524 1525 1525 1526 1527 1528 1530 1532 1534 1535 1537 1539 1540 1542 1544 1545 1547 1547 1548 1549 1550 1551 1552 1553 1553 1554 1554 1555 1555 1556 1557 1557 1558 1558
1505 1506 1510 1513 1515 1517 1519 1521 1522 1524 1525 1526 1527 1528 1530 1532 1534 1536 1538 1539 1541 1542 1544 1546 1547 1548 1549 1550 1550 1551 1552 1553 1553 1553 1554 1554 1555 1556 1556 1557 1558 1559
1504 1506 1508 1512 1514 1516 1519 1520 1521 1523 1524 1526 1527 1528 1530 1532 1535 1537 1539 1540 1542 1543 1545 1546 1547 1548 1549 1550 1551 1552 1552 1553 1553 1553 1554 1554 1555 1556 1556 1557 1558 1559
1504 1506 1509 1512 1514 1516 1518 1520 1521 1522 1524 1526 1527 1528 1530 1533 1535 1537 1539 1541 1542 1543 1544 1546 1547 1548 1549 1550 1551 1552 1553 1553 1554 1554 1554 1555 1555 1556 1556 1558 1559 1560
1503 1506 1509 1512 1514 1515 1518 1519 1521 1522 1524 1525 1527 1529 1531 1533 1535 1538 1540 1541 1541 1542 1543 1545 1546 1547 1549 1550 1551 1552 1553 1553 1554 1555 1555 1555 1555 1556 1557 1558 1559 1561
1503 1505 1508 1512 1513 1515 1518 1520 1521 1523 1524 1526 1528 1530 1532 1534 1536 1538 1539 1540 1541 1541 1543 1545 1546 1547 1548 1550 1551 1552 1553 1554 1555 1555 1555 1556 1556 1556 1557 1558 1560 1561
1502 1505 1508 1512 1514 1515 1518 1520 1522 1524 1525 1527 1528 1530 1532 1534 1536 1537 1538 1539 1540 1541 1543 1545 1546 1547 1549 1550 1551 1552 1553 1554 1555 1555 1556 1556 1556 1557 1558 1559 1560 1562
1501 1505 1508 1512 1514 1516 1518 1520 1522 1524 1525 1526 1528 1530 1531 1533 1534 1536 1537 1539 1540 1541 1543 1544 1546 1547 1549 1550 1551 1552 1553 1554 1555 1555 1556 1557 1557 1557 1558 1559 1560 1562
1501 1505 1508 1510 1513 1515 1518 1520 1522 1523 1524 1526 1528 1529 1531 1533 1534 1535 1537 1538 1540 1541 1543 1544 1546 1547 1549 1550 1551 1552 1553 1554 1555 1555 1556 1556 1557 1557 1558 1559 1560 1561
1501 1504 1507 1509 1512 1515 1517 1518 1520 1521 1522 1525 1527 1529 1531 1532 1534 1535 1537 1539 1540 1542 1543 1545 1546 1547 1548 1550 1551 1552 1553 1554 1554 1555 1555 1556 1557 1557 1558 1559 1559 1560
1502 1504 1507 1509 1512 1515 1516 1518 1519 1520 1521 1523 1526 1529 1531 1532 1533 1535 1537 1539 1540 1542 1543 1545 1546 1547 1548 1549 1551 1552 1553 1553 1554 1554 1555 1556 1557 1558 1558 1559 1559 1560
1503 1504 1507 1509 1512 1514 1515 1517 1519 1519 1520 1522 1525 1529 1531 1532 1534 1535 1537 1539 1540 1542 1543 1544 1546 1547 1548 1549 1550 1551 1553 1553 1553 1554 1555 1556 1557 1557 1558 1559 1559 1560
1503 1504 1507 1509 1511 1512 1514 1516 1519 1520 1522 1523 1525 1528 1530 1532 1534 1535 1537 1539 1541 1542 1543 1544 1545 1546 1547 1549 1550 1551 1552 1553 1553 1553 1554 1556 1556 1557 1558 1558 1559 1560
1503 1504 1507 1510 1512 1513 1514 1517 1520 1522 1523 1525 1526 1528 1530 1532 1534 1535 1537 1539 1541 1542 1543 1544 1545 1546 1547 1549 1549 1550 1551 1552 1552 1552 1553 1554 1555 1556 1557 1558 1558 1559
1504 1505 1507 1509 1512 1514 1516 1518 1521 1523 1524 1526 1527 1529 1531 1533 1534 1536 1537 1539 1540 1541 1542 1543 1545 1546 1547 1548 1549 1550 1551 1551 1551 1551 1552 1553 1554 1555 1555 1556 1557 1558
1507 1508 1509 1511 1513 1515 1518 1519 1521 1523 1525 1526 1528 1530 1531 1533 1534 1535 1537 1538 1539 1540 1541 1542 1543 1544 1546 1547 1548 1549 1550 1550 1550 1550 1551 1552 1552 1553 1553 1554 1556 1556
1511 1511 1512 1514 1516 1517 1519 1520 1522 1523 1525 1527 1528 1530 1531 1533 1534 1535 1536 1537 1538 1539 1539 1541 1542 1543 1545 1546 1547 1548 1548 1549 1549 1549 1549 1550 1551 1551 1552 1553 1554 1555
Wind_Speed
20 20 19 21 22 22 21 21 21 22 21 20 20 21 20 20 18 16 16 15 14 14 14 14 14 14 14 13 12 12 12 11 11 12 12 12 13 13 13 13 13 12
21 20 20 22 22 21 21 20 20 20 19 17 17 17 17 16 16 16 17 17 15 14 14 13 13 14 14 13 12 11 11 11 11 11 11 11 11 12 12 13 13 12
23 21 22 22 21 20 20 20 20 19 18 16 15 15 15 15 16 16 16 17 16 15 13 11 11 12 12 13 12 11 10 10 11 11 10 9 10 11 11 12 12 12
23 22 22 22 21 20 20 22 21 19 18 17 15 15 16 16 16 15 14 14 14 14 13 11 11 11 11 12 13 11 10 11 11 11 10 9 9 10 11 12 12 12
22 23 23 21 21 21 22 23 21 19 18 17 16 16 16 17 16 14 13 12 10 12 13 12 12 11 10 12 12 10 10 10 10 10 10 9 9 9 10 11 11 11
22 23 22 21 21 23 23 23 21 19 18 17 16 16 16 17 17 15 14 11 8 12 14 14 13 11 10 11 11 9 10 9 9 10 9 9 9 9 9 9 9 11
23 22 22 21 22 24 24 23 21 21 19 18 17 16 15 16 17 16 14 10 9 13 16 15 14 11 10 11 10 9 9 9 9 9 9 10 10 10 10 9 9 11
24 22 22 22 22 25 25 23 22 22 20 19 18 16 15 15 15 14 11 8 10 14 16 15 13 11 12 12 10 9 10 10 10 8 6 8 10 10 10 10 10 11
24 23 23 24 25 26 25 24 23 22 20 19 17 15 15 15 13 12 10 8 10 14 15 14 13 13 14 12 10 10 10 10 10 8 6 9 10 10 9 10 11 12
25 25 26 27 27 27 27 26 23 21 20 18 15 16 17 15 12 12 11 9 9 12 14 14 13 13 13 11 11 10 9 8 7 8 9 10 11 10 10 11 13 13
28 30 29 28 28 27 27 25 21 19 19 17 16 19 18 14 12 13 12 10 9 12 14 13 12 12 11 12 12 9 8 7 7 10 13 13 12 11 11 12 13 14
30 30 29 28 27 26 25 22 19 18 17 17 20 21 17 14 14 14 13 11 10 12 13 12 11 11 11 12 13 10 8 9 8 9 11 12 11 11 11 12 12 15
30 28 27 27 25 24 22 21 19 18 17 19 22 21 18 16 16 14 12 12 12 13 14 12 13 13 11 11 13 11 10 10 9 9 9 10 10 10 11 11 11 15
31 29 28 26 25 23 21 20 18 18 19 19 20 20 20 19 17 14 13 15 15 15 15 14 14 14 12 12 12 12 12 12 10 9 9 10 11 11 12 11 12 16
31 30 29 28 26 24 21 20 19 20 20 19 18 20 19 18 17 15 14 16 16 15 15 14 14 14 12 12 12 12 13 14 12 10 10 11 12 13 11 9 10 13
31 30 28 26 24 23 22 21 20 19 20 19 20 20 18 17 18 16 15 16 15 15 15 15 13 13 13 12 12 12 14 14 12 12 12 12 12 12 11 9 8 8
30 28 26 24 22 21 21 21 19 19 21 21 20 20 19 20 19 17 16 16 15 15 15 14 13 14 13 12 12 13 14 13 12 12 12 11 10 10 10 10 9 7
30 29 29 28 25 23 22 23 22 22 23 22 20 20 21 20 18 16 17 16 14 14 14 13 14 15 14 14 14 14 14 13 13 14 13 12 11 10 9 9 8 7
30 31 31 30 27 25 26 27 26 25 26 23 20 20 21 19 17 17 17 14 13 14 14 12 13 14 14 14 14 14 14 14 14 13 13 13 12 11 9 8 7 7
30 30 29 28 28 28 28 29 28 27 27 25 22 21 20 18 16 16 16 14 13 13 12 11 12 13 14 15 15 14 14 14 13 11 12 11 10 9 8 6 6 6
27 28 29 28 29 29 30 30 29 28 27 26 24 22 20 18 16 15 14 13 11 10 10 10 11 12 14 15 15 14 13 14 11 8 8 9 7 6 5 4 4 5
27 27 28 28 27 30 31 30 28 27 25 24 23 22 20 19 17 15 14 12 11 11 11 11 10 11 12 14 14 14 14 14 10 4 2 3 4 5 6 6 7 8
30 29 28 27 26 27 29 28 26 24 22 22 22 21 20 19 18 16 13 12 11 11 10 10 9 9 10 11 12 13 12 12 10 6 5 7 7 7 8 9 9 9
24 26 27 27 25 23 24 24 22 20 19 20 21 19 18 17 17 15 13 11 10 8 7 6 5 6 7 8 8 8 7 8 9 9 9 10 10 8 8 9 9 10
13 17 20 23 24 24 24 23 20 18 20 21 20 18 17 17 16 15 14 12 10 8 7 7 6 5 5 5 5 6 7 8 9 10 10 9 8 8 8 9 10 10
11 13 15 17 19 20 21 20 19 20 20 20 18 16 14 13 12 12 13 12 11 9 9 10 9 8 7 8 9 9 9 9 9 10 11 10 10 9 9 9 9 8
Wind_Direction
217 215 212 205 197 191 188 181 174 170 167 166 167 167 168 172 176 172 163 161 160 160 167 173 175 172 167 168 174 176 174 173 170 174 181 185 187 186 185 190 196 195
216 214 210 203 197 191 188 182 173 167 164 164 166 165 165 169 168 162 157 156 157 160 164 169 173 172 168 165 167 171 170 168 167 167 171 179 182 180 182 189 195 200
215 211 206 200 195 188 183 175 167 163 163 166 171 171 165 163 163 162 163 166 168 169 170 170 170 170 167 163 166 169 167 166 166 164 166 173 177 177 179 184 190 194
214 209 205 198 192 186 178 171 164 163 171 176 179 178 172 168 169 169 171 174 172 174 177 172 166 166 162 164 169 167 164 167 163 161 166 169 169 172 172 176 184 183
211 209 204 195 190 184 176 170 166 169 179 180 177 176 173 171 170 166 167 170 172 175 172 162 159 161 158 164 172 169 168 172 165 159 163 164 165 167 168 174 179 173
208 210 201 192 189 183 174 171 171 175 180 177 171 167 165 165 164 161 165 171 175 171 163 153 154 159 158 162 168 166 165 168 165 159 156 160 162 159 165 175 172 165
208 206 194 189 188 179 173 173 176 180 180 175 169 166 164 162 161 166 174 172 164 162 156 151 154 156 150 146 146 146 147 149 153 151 152 160 158 152 160 170 167 165
203 194 187 189 186 177 175 177 181 182 179 175 172 168 163 158 157 164 171 155 145 152 150 150 157 151 137 134 132 126 126 133 141 143 150 160 156 150 153 158 163 164
191 185 186 188 182 178 180 181 181 181 180 179 176 165 152 148 148 151 151 137 134 143 145 146 147 138 133 136 130 121 123 133 146 160 166 162 161 156 148 154 163 162
183 181 184 185 182 181 183 183 182 184 186 183 174 156 146 149 153 149 145 137 131 137 142 142 138 135 141 143 129 126 137 139 153 172 168 159 161 157 147 155 163 157
186 183 183 184 183 183 184 184 184 188 190 182 164 149 146 156 158 149 148 147 141 140 142 144 142 141 146 142 132 132 134 119 123 152 158 154 153 150 149 158 159 150
186 183 182 182 182 183 186 184 180 184 184 171 156 149 151 159 154 150 154 152 144 140 142 148 148 144 144 142 139 135 125 113 108 129 147 150 149 147 149 156 156 147
181 181 183 181 179 182 183 179 176 177 173 164 159 156 154 152 151 154 157 150 143 144 149 155 151 146 145 144 142 136 127 123 112 109 120 129 138 144 145 153 156 151
177 177 179 178 176 177 177 172 170 167 161 160 162 160 151 147 151 155 152 151 154 155 155 155 152 150 147 143 146 144 136 131 125 119 116 112 118 127 131 138 147 154
176 175 174 173 171 172 172 168 165 163 161 158 156 153 148 146 152 155 156 161 163 158 155 155 156 155 151 147 150 152 146 142 138 134 128 122 124 128 130 131 138 153
174 173 173 173 170 169 171 170 167 164 160 153 149 149 149 149 154 161 166 168 165 159 157 159 159 155 152 151 150 148 148 147 145 141 136 133 134 134 134 137 137 145
171 169 172 175 173 170 169 166 160 155 152 149 150 152 153 153 157 164 167 168 167 162 158 158 159 154 151 150 146 143 145 144 143 144 140 135 136 132 126 130 133 134
171 169 173 173 166 161 160 157 154 151 151 152 154 156 155 155 157 160 162 165 166 163 160 157 155 155 153 151 149 148 148 144 142 143 141 137 143 145 138 138 147 154
172 171 170 165 157 155 159 160 158 155 153 155 158 159 159 157 156 156 157 160 161 163 165 159 154 158 158 156 157 156 153 151 150 151 147 140 144 156 164 168 171 175
172 170 166 160 157 158 160 160 158 157 157 159 161 163 163 159 156 156 156 155 155 161 168 167 164 166 165 163 165 163 158 155 154 158 158 150 145 152 165 179 183 188
175 171 167 165 163 162 160 160 160 159 158 159 159 161 163 159 154 153 152 151 150 152 162 167 168 171 172 170 170 169 166 161 155 156 166 169 172 172 178 200 215 225
176 174 169 167 166 163 159 158 160 158 156 158 159 159 160 157 151 148 146 146 144 139 140 145 148 158 169 174 174 176 178 177 176 182 192 199 220 225 231 246 253 256
169 173 171 168 164 160 157 158 163 164 162 165 167 165 163 162 159 157 152 149 147 143 140 140 140 146 159 171 175 176 181 189 202 228 271 295 290 271 259 260 260 260
157 164 168 168 165 160 157 158 163 166 166 169 173 171 168 168 169 171 170 170 172 171 169 170 168 163 168 177 180 183 199 224 239 248 267 281 277 264 264 266 261 258
139 149 154 159 160 160 159 157 163 170 169 170 173 171 170 174 180 187 193 203 214 224 235 243 244 238 225 219 220 228 242 253 258 262 267 266 260 259 265 265 258 251
113 124 133 141 149 156 159 160 166 171 171 171 173 173 175 181 190 200 208 219 232 242 248 252 253 251 244 242 243 244 243 243 245 255 260 258 256 257 253 249 246 240